Regional Weather Roundup
Issued by NWS

Home | Current Version | Previous Version | Graphics & Text | Print | Product List | Glossary On
Versions: 1 2 3 4 5 6 7 8 9 10 11 12 13 14 15 16 17 18 19 20 21 22 23 24 25 26 27
000
ASUS45 KTFX 231110
RWRMT
MONTANA REGIONAL WEATHER ROUNDUP
NATIONAL WEATHER SERVICE GREAT FALLS MT
500 AM MDT MON APR 23 2018

NOTE: "FAIR" INDICATES FEW OR NO CLOUDS BELOW 12000 FEET WITH NO
SIGNIFICANT WEATHER AND/OR OBSTRUCTIONS TO VISIBILITY.

MTZ001>007-043-231200-
WEST OF THE DIVIDE

CITY           SKY/WX    TMP DP  RH WIND       PRES   REMARKS
KALISPELL      MOCLDY    41  24  51 N8        30.27R
MISSOULA       FAIR      34  23  64 SE6       30.24R WCI  29
BUTTE          LGT SNOW  35  28  75 N14G20    30.18R WCI  26
MULLAN PASS    FAIR      30  16  56 CALM      30.21R
ANACONDA         N/A     32  30  93 N8        30.22R WCI  25
DEER LODGE       N/A     34  30  86 N16       30.27R WCI  23
HAMILTON         N/A     37  21  52 MISG        N/A
RONAN            N/A     32  25  74 NE3       30.26R
$$

MTZ008-052>055-231200-
SOUTHWEST MONTANA

CITY           SKY/WX    TMP DP  RH WIND       PRES   REMARKS
BOZEMAN        LGT RAIN  36  34  92 SW7       30.17R FOG     WCI  30
DILLON         FLURRIES  34  33  96 NE20      30.13R WCI  23
ENNIS          LGT SNOW  32  32 100 N21       30.14F WCI  20
W YELLOWSTONE  LGT SNOW  32  32 100 SE5       30.07F
THREE FORKS      N/A     39  36  89 N12       30.15R WCI  32
TWIN BRIDGES     N/A     36  31  82 N21       30.10R WCI  25
$$

MTZ009-010-012-014-046-048-049-054-231200-
EAST SLOPES AND CENTRAL MONTANA

CITY           SKY/WX    TMP DP  RH WIND       PRES   REMARKS
CUT BANK       FAIR      31  23  72 N10       30.32R WCI  22
GREAT FALLS    CLOUDY    38  25  59 N10       30.28R WCI  31
HELENA         CLOUDY    37  33  85 NW10      30.27R WCI  30
CHOTEAU          N/A     36  21  55 N10       30.32R WCI  28
WHITE SULPHUR  FOG       32  32 100 NW14      30.19  VSB 1/2 WCI  22
$$

MTZ011-013-016-021-045-047-050-051-231200-
NORTH CENTRAL MONTANA

CITY           SKY/WX    TMP DP  RH WIND       PRES   REMARKS
HAVRE          FAIR      38  29  70 E5        30.31R
LEWISTOWN      LGT SNOW  33  33 100 S7        30.25R FOG     WCI  27
N BAR RANCH    LGT SNOW  34  32  93 W9        30.24S WCI  26
CHINOOK          N/A     37  34  87 W3        30.31R
$$

MTZ017>020-022>027-061-062-231200-
NORTHEAST MONTANA

CITY           SKY/WX    TMP DP  RH WIND       PRES   REMARKS
GLASGOW        FAIR      43  31  62 CALM      30.27R
GLENDIVE       CLOUDY    46  26  45 NE14      30.20F
JORDAN           N/A     47  29  49 E8        30.23F
MALTA          CLEAR     41  32  70 N9        30.27R
SIDNEY         FAIR      42  29  59 N10       30.23
WOLF POINT     MOCLDY    44  30  57 NE7       30.27R
PLENTYWOOD       N/A     36  32  87 CALM      30.25S
POPLAR           N/A     43  30  61 N3        30.27R
$$

MTZ028>42-056>058-231200-
SOUTHCENTRAL AND SOUTHEAST MONTANA

CITY           SKY/WX    TMP DP  RH WIND       PRES   REMARKS
BAKER          MOCLDY    46  30  53 NE16      30.14S
BILLINGS       CLOUDY    43  35  73 N24       30.14R
LIVINGSTON     LGT RAIN  36  32  85 E21G28    30.16S WCI  25
MILES CITY     CLOUDY    48  29  47 NE17      30.14F
BIG TIMBER     CLOUDY    36  36 100 NE13      30.21S WCI  27
EKALAKA          N/A     45  30  55 NE5       30.08R
FORSYTH          N/A     48  30  49 MISG      30.15S
LAUREL           N/A     45  36  70 N17G26    30.18R
$$

REGIONAL REPORTS...DAKOTAS

CITY           SKY/WX    TMP DP  RH WIND       PRES   REMARKS
WILLISTON      MOCLDY    36  31  82 E3        30.24R
MINOT          FAIR      38  28  67 W5        30.21R
DICKINSON      FAIR      40  28  62 NE13      30.15R
BEACH          CLOUDY    41  25  52 NE7       30.21S
CROSBY         FAIR      32  32 100 NW8       30.25R WCI  25
TIOGA          FAIR      37  30  75 NE5       30.24R
BISMARCK       FAIR      39  36  89 NW6       30.16R
GRAND FORKS    FAIR      35  35 100 SW6       30.14R WCI  30
FARGO          CLOUDY    42  37  82 S8        30.17S
BUFFALO SD       N/A     44  35  70 NE9       30.04R
RAPID CITY     FAIR      38  35  89 E6        30.06S
$$

REGIONAL REPORTS...WYOMING/IDAHO/WASHINGTON

CITY           SKY/WX    TMP DP  RH WIND       PRES   REMARKS
GILLETTE       FAIR      42  36  79 CALM      30.02F
SHERIDAN       FAIR      45  34  65 W9        30.05R
BUFFALO WY     FAIR      45  32  60 N16       30.04S
CODY           MOCLDY    42  31  64 N21G29    30.09R
YELLOWSTONE LA   N/A     32  30  92 VRB3      30.13R
IDAHO FALLS    FAIR      42  39  89 CALM      30.08R
SALMON         CLOUDY    46  30  53 N12       30.12R
BOISE          FAIR      41  26  55 NW14      30.16R
SPOKANE        FAIR      34  23  64 W3        30.28R
$$

REGIONAL REPORTS...ALBERTA

CITY           SKY/WX    TMP DP  RH WIND       PRES   REMARKS
CALGARY        MOCLDY    34  23  64 NE3       30.36R
CARDSTON         N/A     30  25  80 SW5         N/A
EDMONTON       CLEAR     28  14  54 W7        30.33R WCI  21
FORT MCMURRAY  CLEAR     27  25  93 SW5       30.24S
HIGH LEVEL     CLEAR     25  23  93 N2        30.21S
LETHBRIDGE     CLOUDY    30  25  80 W7        30.37R WCI  23
LLOYDMINSTER   CLEAR     27  25  93 W12       30.28R WCI  16
MEDICINE HAT   CLEAR     30  27  86 CALM      30.35R
PEACE RIVER    PTCLDY    36  19  51 W5        30.27R
PINCHER CREEK  PTCLDY    27  23  86 W8        30.36R WCI  18
WATERTON GATE    N/A     28  23  80 E3          N/A
$$

REGIONAL REPORTS...SASKATCHEWAN

CITY           SKY/WX    TMP DP  RH WIND       PRES   REMARKS
CORONACH         N/A     34  30  86 NW5         N/A
CYPRESS HILLS    N/A     30  25  80 N6          N/A  WCI  24
ESTEVAN        PTCLDY    30  28  93 W9        30.24R WCI  22
MOOSE JAW        N/A     37  32  81 NW10        N/A  WCI  30
PRINCE ALBERT  MOCLDY    36  32  87 W9        30.19R WCI  29
REGINA         PTCLDY    30  28  93 NW8       30.23R WCI  23
ROCKGLEN         N/A     34  30  86 N5          N/A
SASKATOON      PTCLDY    34  30  86 W12       30.26R WCI  25
SWIFT CURRENT  PTCLDY    30  28  93 W9        30.28R WCI  22
VAL MARIE        N/A     32  28  86 NE3         N/A
$$




USA.gov is the U.S. government's official web portal to all federal, state and local government web resources and services.